Station Historical Data
Daily Summary for April 6, 2012 Units:  English    Metric   Both
« Previous Day
Next Day »
Daily Weekly Monthly Yearly Custom
  High: Low: Average:
Temperature: 65.0 °F 45.1 °F 55.1 °F
Dew Point: 51.7 °F 37.5 °F 42.6 °F
Humidity: 92% 37% 65%
Wind Speed: 13.0mph 0.0mph 5.3mph
Wind Gust: 16.0mph - -
Wind- - SSE
Pressure: 30.09 in 29.79 in -
Precipitation: 0.00 in    
Historical Graphs
 
 
Tabular Data for April 6, 2012
Time Temperature Dew Point Pressure Wind Wind Speed Wind Gust Humidity Rainfall Rate (Hourly) Conditions
00:00 54.6 °F 51.7 °F 29.79 in NW 4.0 mph 13.0 mph 90% 0.00 in
00:01 54.6 °F 51.7 °F 29.79 in North 10.0 mph 13.0 mph 90% 0.00 in
00:06 54.4 °F 51.5 °F 29.79 in NNW 6.0 mph 15.0 mph 90% 0.00 in
00:11 54.3 °F 51.7 °F 29.79 in NE 4.0 mph 9.0 mph 91% 0.00 in
00:16 54.2 °F 51.6 °F 29.79 in North 3.0 mph 8.0 mph 91% 0.00 in
00:21 54.0 °F 51.4 °F 29.80 in NE 5.0 mph 8.0 mph 91% 0.00 in
00:26 53.9 °F 51.6 °F 29.80 in NW 2.0 mph 10.0 mph 92% 0.00 in
00:31 53.8 °F 51.5 °F 29.80 in North 6.0 mph 8.0 mph 92% 0.00 in
00:36 53.8 °F 51.5 °F 29.80 in North 3.0 mph 7.0 mph 92% 0.00 in
00:41 53.8 °F 51.5 °F 29.80 in NNE 4.0 mph 7.0 mph 92% 0.00 in
00:46 53.8 °F 51.5 °F 29.81 in NNW 4.0 mph 8.0 mph 92% 0.00 in
00:51 53.8 °F 51.5 °F 29.81 in NW 3.0 mph 6.0 mph 92% 0.00 in
00:57 53.8 °F 51.5 °F 29.81 in NW 6.0 mph 7.0 mph 92% 0.00 in
01:02 53.8 °F 51.5 °F 29.81 in NNW 2.0 mph 9.0 mph 92% 0.00 in
01:07 53.8 °F 51.5 °F 29.81 in NNW 2.0 mph 2.0 mph 92% 0.00 in
01:12 53.9 °F 51.3 °F 29.81 in NNW 5.0 mph 9.0 mph 91% 0.00 in
01:17 53.9 °F 51.3 °F 29.81 in WNW 5.0 mph 7.0 mph 91% 0.00 in
01:22 53.8 °F 50.9 °F 29.81 in NW 3.0 mph 8.0 mph 90% 0.00 in
01:27 53.7 °F 50.8 °F 29.82 in NNW 6.0 mph 8.0 mph 90% 0.00 in
01:32 53.6 °F 50.7 °F 29.81 in NNW 5.0 mph 9.0 mph 90% 0.00 in
01:37 53.6 °F 50.7 °F 29.81 in NW 5.0 mph 9.0 mph 90% 0.00 in
01:42 53.6 °F 50.7 °F 29.82 in NW 4.0 mph 9.0 mph 90% 0.00 in
01:47 53.5 °F 50.6 °F 29.81 in North 5.0 mph 9.0 mph 90% 0.00 in
01:52 53.4 °F 50.2 °F 29.82 in NW 6.0 mph 11.0 mph 89% 0.00 in
01:57 53.4 °F 50.2 °F 29.82 in NW 6.0 mph 9.0 mph 89% 0.00 in
02:02 53.3 °F 50.2 °F 29.82 in NW 6.0 mph 9.0 mph 89% 0.00 in
02:07 53.2 °F 50.0 °F 29.82 in NW 5.0 mph 6.0 mph 89% 0.00 in
02:12 53.2 °F 50.0 °F 29.82 in NNW 6.0 mph 9.0 mph 89% 0.00 in
02:17 53.1 °F 50.0 °F 29.82 in NNE 4.0 mph 10.0 mph 89% 0.00 in
02:22 53.0 °F 49.8 °F 29.82 in NW 5.0 mph 10.0 mph 89% 0.00 in
02:27 52.8 °F 49.7 °F 29.82 in NNE 8.0 mph 11.0 mph 89% 0.00 in
02:32 52.7 °F 49.2 °F 29.82 in NNW 6.0 mph 13.0 mph 88% 0.00 in
02:37 52.5 °F 49.0 °F 29.82 in NNW 6.0 mph 9.0 mph 88% 0.00 in
02:42 52.3 °F 48.9 °F 29.82 in NNE 5.0 mph 9.0 mph 88% 0.00 in
02:48 52.1 °F 48.7 °F 29.82 in North 4.0 mph 9.0 mph 88% 0.00 in
02:53 51.9 °F 48.5 °F 29.82 in NNW 3.0 mph 9.0 mph 88% 0.00 in
02:54 51.8 °F 48.4 °F 29.82 in NNW 5.0 mph 8.0 mph 88% 0.00 in
02:59 51.6 °F 48.5 °F 29.82 in NNW 5.0 mph 8.0 mph 89% 0.00 in
03:04 51.5 °F 48.1 °F 29.82 in NNW 4.0 mph 9.0 mph 88% 0.00 in
03:09 51.2 °F 48.1 °F 29.82 in North 4.0 mph 7.0 mph 89% 0.00 in
03:14 51.0 °F 47.9 °F 29.83 in North 7.0 mph 7.0 mph 89% 0.00 in
03:19 50.8 °F 47.7 °F 29.83 in NNW 4.0 mph 7.0 mph 89% 0.00 in
03:24 50.7 °F 47.6 °F 29.83 in NNW 3.0 mph 8.0 mph 89% 0.00 in
03:29 50.5 °F 47.7 °F 29.83 in NNW 4.0 mph 9.0 mph 90% 0.00 in
03:34 50.4 °F 47.3 °F 29.83 in NNW 6.0 mph 8.0 mph 89% 0.00 in
03:39 50.3 °F 47.2 °F 29.83 in North 3.0 mph 8.0 mph 89% 0.00 in
03:44 50.2 °F 47.1 °F 29.83 in NNW 4.0 mph 8.0 mph 89% 0.00 in
03:49 50.0 °F 46.9 °F 29.83 in North 4.0 mph 8.0 mph 89% 0.00 in
03:51 50.0 °F 46.9 °F 29.83 in NE 4.0 mph 8.0 mph 89% 0.00 in
03:56 49.9 °F 46.8 °F 29.83 in North 5.0 mph 7.0 mph 89% 0.00 in
04:01 49.8 °F 46.7 °F 29.83 in NNW 4.0 mph 8.0 mph 89% 0.00 in
04:06 49.6 °F 46.5 °F 29.83 in North 3.0 mph 6.0 mph 89% 0.00 in
04:11 49.5 °F 46.4 °F 29.83 in North 3.0 mph 5.0 mph 89% 0.00 in
04:16 49.3 °F 46.2 °F 29.83 in NNW 5.0 mph 8.0 mph 89% 0.00 in
04:21 49.2 °F 46.1 °F 29.83 in North 6.0 mph 7.0 mph 89% 0.00 in
04:26 49.1 °F 46.0 °F 29.83 in NNE 5.0 mph 9.0 mph 89% 0.00 in
04:31 49.1 °F 45.7 °F 29.83 in NNW 4.0 mph 7.0 mph 88% 0.00 in
04:37 49.1 °F 45.7 °F 29.83 in North 3.0 mph 10.0 mph 88% 0.00 in
04:42 49.0 °F 45.3 °F 29.83 in North 5.0 mph 8.0 mph 87% 0.00 in
04:47 49.0 °F 45.3 °F 29.83 in North 9.0 mph 10.0 mph 87% 0.00 in
04:52 49.0 °F 45.0 °F 29.83 in NNW 7.0 mph 12.0 mph 86% 0.00 in
04:57 48.9 °F 44.9 °F 29.83 in North 8.0 mph 8.0 mph 86% 0.00 in
05:02 48.8 °F 44.5 °F 29.83 in NNW 4.0 mph 8.0 mph 85% 0.00 in
05:07 48.7 °F 44.4 °F 29.83 in North 9.0 mph 11.0 mph 85% 0.00 in
05:12 48.6 °F 44.3 °F 29.84 in NNW 7.0 mph 7.0 mph 85% 0.00 in
05:17 48.5 °F 43.9 °F 29.84 in NNW 10.0 mph 11.0 mph 84% 0.00 in
05:22 48.4 °F 43.8 °F 29.84 in North 9.0 mph 9.0 mph 84% 0.00 in
05:27 48.4 °F 43.8 °F 29.84 in NNW 6.0 mph 10.0 mph 84% 0.00 in
05:32 48.3 °F 43.4 °F 29.84 in NNW 5.0 mph 10.0 mph 83% 0.00 in
05:37 48.1 °F 43.2 °F 29.84 in NNW 5.0 mph 10.0 mph 83% 0.00 in
05:42 47.9 °F 43.0 °F 29.85 in NNW 4.0 mph 8.0 mph 83% 0.00 in
05:48 47.7 °F 43.1 °F 29.85 in North 6.0 mph 8.0 mph 84% 0.00 in
05:53 47.7 °F 43.1 °F 29.85 in North 4.0 mph 11.0 mph 84% 0.00 in
05:58 47.5 °F 42.9 °F 29.85 in NW 6.0 mph 9.0 mph 84% 0.00 in
06:03 47.4 °F 42.8 °F 29.86 in North 9.0 mph 9.0 mph 84% 0.00 in
06:08 47.2 °F 42.6 °F 29.86 in NE 5.0 mph 9.0 mph 84% 0.00 in
06:13 47.2 °F 42.6 °F 29.86 in North 3.0 mph 11.0 mph 84% 0.00 in
06:18 47.1 °F 42.2 °F 29.86 in North 7.0 mph 9.0 mph 83% 0.00 in
06:23 47.0 °F 42.1 °F 29.86 in North 7.0 mph 10.0 mph 83% 0.00 in
06:28 46.9 °F 42.0 °F 29.87 in NNW 7.0 mph 9.0 mph 83% 0.00 in
06:33 46.8 °F 41.9 °F 29.87 in NNW 4.0 mph 6.0 mph 83% 0.00 in
06:38 46.6 °F 41.7 °F 29.88 in North 6.0 mph 10.0 mph 83% 0.00 in
06:44 46.4 °F 41.5 °F 29.88 in NNE 6.0 mph 7.0 mph 83% 0.00 in
06:50 46.3 °F 41.1 °F 29.88 in North 7.0 mph 9.0 mph 82% 0.00 in
06:55 46.3 °F 41.1 °F 29.89 in North 5.0 mph 9.0 mph 82% 0.00 in
07:00 46.1 °F 40.9 °F 29.89 in NNE 4.0 mph 12.0 mph 82% 0.00 in
07:05 46.0 °F 40.8 °F 29.89 in NNW 5.0 mph 8.0 mph 82% 0.00 in
07:10 45.9 °F 40.7 °F 29.89 in NNE 6.0 mph 7.0 mph 82% 0.00 in
07:15 45.9 °F 40.7 °F 29.90 in NNW 3.0 mph 8.0 mph 82% 0.00 in
07:20 45.7 °F 40.5 °F 29.90 in NNW 7.0 mph 9.0 mph 82% 0.00 in
07:25 45.6 °F 40.4 °F 29.90 in NNE 4.0 mph 8.0 mph 82% 0.00 in
07:30 45.5 °F 40.3 °F 29.90 in North 3.0 mph 9.0 mph 82% 0.00 in
07:35 45.4 °F 40.2 °F 29.91 in North 7.0 mph 9.0 mph 82% 0.00 in
07:40 45.2 °F 40.3 °F 29.91 in North 5.0 mph 7.0 mph 83% 0.00 in
07:45 45.1 °F 40.2 °F 29.91 in NNE 3.0 mph 11.0 mph 83% 0.00 in
07:50 45.1 °F 40.2 °F 29.91 in NE 6.0 mph 7.0 mph 83% 0.00 in
07:55 45.2 °F 40.0 °F 29.91 in NE 6.0 mph 7.0 mph 82% 0.00 in
07:56 45.3 °F 40.1 °F 29.91 in NNE 4.0 mph 7.0 mph 82% 0.00 in
08:01 45.3 °F 40.1 °F 29.92 in North 5.0 mph 6.0 mph 82% 0.00 in
08:06 45.7 °F 40.5 °F 29.92 in NNE 3.0 mph 7.0 mph 82% 0.00 in
08:11 46.1 °F 40.6 °F 29.92 in North 6.0 mph 8.0 mph 81% 0.00 in
08:16 46.3 °F 40.5 °F 29.93 in NNE 6.0 mph 7.0 mph 80% 0.00 in
08:21 46.5 °F 40.3 °F 29.93 in North 3.0 mph 10.0 mph 79% 0.00 in
08:26 46.6 °F 40.8 °F 29.93 in North 3.0 mph 7.0 mph 80% 0.00 in
08:31 46.8 °F 40.6 °F 29.94 in North 4.0 mph 11.0 mph 79% 0.00 in
08:36 46.9 °F 40.7 °F 29.94 in North 5.0 mph 7.0 mph 79% 0.00 in
08:41 47.2 °F 41.0 °F 29.94 in North 5.0 mph 9.0 mph 79% 0.00 in
08:46 47.3 °F 41.1 °F 29.95 in NNW 6.0 mph 8.0 mph 79% 0.00 in
08:51 47.6 °F 41.4 °F 29.94 in NNW 5.0 mph 9.0 mph 79% 0.00 in
08:56 47.8 °F 41.0 °F 29.95 in NNE 6.0 mph 11.0 mph 77% 0.00 in
09:01 48.0 °F 41.5 °F 29.95 in NNE 4.0 mph 11.0 mph 78% 0.00 in
09:07 48.2 °F 41.0 °F 29.95 in North 9.0 mph 12.0 mph 76% 0.00 in
09:12 48.3 °F 41.1 °F 29.96 in NNW 7.0 mph 10.0 mph 76% 0.00 in
09:17 48.5 °F 41.6 °F 29.96 in North 5.0 mph 12.0 mph 77% 0.00 in
09:22 48.7 °F 41.1 °F 29.96 in NNE 4.0 mph 12.0 mph 75% 0.00 in
09:27 48.9 °F 41.0 °F 29.96 in North 5.0 mph 14.0 mph 74% 0.00 in
09:32 49.0 °F 41.4 °F 29.96 in North 4.0 mph 16.0 mph 75% 0.00 in
09:37 49.3 °F 41.7 °F 29.96 in NNW 6.0 mph 9.0 mph 75% 0.00 in
09:42 49.4 °F 41.5 °F 29.97 in NNW 8.0 mph 14.0 mph 74% 0.00 in
09:47 49.7 °F 41.8 °F 29.97 in NNW 8.0 mph 12.0 mph 74% 0.00 in
09:52 49.9 °F 42.7 °F 29.97 in North 7.0 mph 13.0 mph 76% 0.00 in
09:57 50.3 °F 42.0 °F 29.97 in NNE 6.0 mph 10.0 mph 73% 0.00 in
10:02 50.8 °F 42.8 °F 29.97 in NNE 10.0 mph 10.0 mph 74% 0.00 in
10:07 51.0 °F 42.3 °F 29.97 in NNE 11.0 mph 11.0 mph 72% 0.00 in
10:12 51.0 °F 42.7 °F 29.98 in North 3.0 mph 11.0 mph 73% 0.00 in
10:17 51.3 °F 41.9 °F 29.98 in NNW 5.0 mph 13.0 mph 70% 0.00 in
10:22 51.4 °F 43.0 °F 29.98 in NNW 5.0 mph 11.0 mph 73% 0.00 in
10:27 51.8 °F 42.3 °F 29.98 in NNE 7.0 mph 10.0 mph 70% 0.00 in
10:32 52.0 °F 42.2 °F 29.98 in NE 4.0 mph 12.0 mph 69% 0.00 in
10:38 52.3 °F 42.5 °F 29.98 in NNE 5.0 mph 11.0 mph 69% 0.00 in
10:43 52.6 °F 43.8 °F 29.98 in NE 7.0 mph 8.0 mph 72% 0.00 in
10:48 53.4 °F 43.9 °F 29.98 in North 8.0 mph 10.0 mph 70% 0.00 in
10:53 53.7 °F 43.0 °F 29.98 in NNE 12.0 mph 13.0 mph 67% 0.00 in
10:58 53.7 °F 42.6 °F 29.99 in NNW 4.0 mph 11.0 mph 66% 0.00 in
11:03 53.8 °F 42.3 °F 29.99 in North 8.0 mph 11.0 mph 65% 0.00 in
11:08 54.2 °F 42.7 °F 29.99 in NNE 10.0 mph 12.0 mph 65% 0.00 in
11:13 54.4 °F 42.9 °F 29.99 in NE 5.0 mph 12.0 mph 65% 0.00 in
11:18 54.8 °F 42.9 °F 29.99 in NNE 5.0 mph 8.0 mph 64% 0.00 in
11:23 55.4 °F 43.0 °F 29.99 in NE 3.0 mph 11.0 mph 63% 0.00 in
11:28 56.1 °F 43.7 °F 29.99 in NNE 4.0 mph 10.0 mph 63% 0.00 in
11:33 56.2 °F 42.1 °F 30.00 in NE 7.0 mph 12.0 mph 59% 0.00 in
11:39 56.5 °F 41.9 °F 30.00 in NE 4.0 mph 11.0 mph 58% 0.00 in
11:44 56.7 °F 43.4 °F 30.00 in NW 8.0 mph 10.0 mph 61% 0.00 in
11:49 56.9 °F 42.7 °F 29.99 in NNE 6.0 mph 11.0 mph 59% 0.00 in
11:54 57.2 °F 41.7 °F 30.00 in NW 4.0 mph 10.0 mph 56% 0.00 in
11:59 57.6 °F 43.0 °F 30.00 in NNW 5.0 mph 12.0 mph 58% 0.00 in
12:04 58.2 °F 43.1 °F 30.00 in NE 7.0 mph 12.0 mph 57% 0.00 in
12:10 58.6 °F 41.5 °F 30.00 in ENE 4.0 mph 10.0 mph 53% 0.00 in
12:15 58.7 °F 42.1 °F 30.00 in NNE 10.0 mph 10.0 mph 54% 0.00 in
12:20 58.5 °F 38.9 °F 30.00 in North 2.0 mph 12.0 mph 48% 0.00 in
12:25 58.7 °F 41.1 °F 30.00 in North 7.0 mph 9.0 mph 52% 0.00 in
12:30 59.1 °F 42.5 °F 30.00 in North 7.0 mph 14.0 mph 54% 0.00 in
12:35 59.4 °F 41.8 °F 30.00 in NNE 8.0 mph 13.0 mph 52% 0.00 in
12:40 59.5 °F 40.3 °F 30.00 in NNW 6.0 mph 9.0 mph 49% 0.00 in
12:45 59.7 °F 41.6 °F 30.00 in NNE 6.0 mph 8.0 mph 51% 0.00 in
12:50 60.0 °F 40.3 °F 30.00 in North 11.0 mph 12.0 mph 48% 0.00 in
12:51 59.9 °F 40.2 °F 30.00 in North 6.0 mph 12.0 mph 48% 0.00 in
12:56 60.1 °F 41.4 °F 30.00 in NW 7.0 mph 12.0 mph 50% 0.00 in
13:01 60.4 °F 41.2 °F 30.00 in NNW 8.0 mph 10.0 mph 49% 0.00 in
13:06 60.6 °F 41.9 °F 30.00 in NNW 9.0 mph 11.0 mph 50% 0.00 in
13:11 61.0 °F 41.7 °F 30.00 in NW 6.0 mph 12.0 mph 49% 0.00 in
13:16 61.0 °F 41.2 °F 30.00 in North 4.0 mph 10.0 mph 48% 0.00 in
13:21 61.0 °F 40.7 °F 30.00 in North 8.0 mph 13.0 mph 47% 0.00 in
13:26 61.1 °F 40.7 °F 30.00 in NNE 4.0 mph 8.0 mph 47% 0.00 in
13:31 61.1 °F 40.2 °F 30.00 in NW 5.0 mph 12.0 mph 46% 0.00 in
13:36 61.3 °F 41.5 °F 30.00 in NNE 7.0 mph 11.0 mph 48% 0.00 in
13:41 61.7 °F 41.8 °F 30.01 in NNW 5.0 mph 10.0 mph 48% 0.00 in
13:47 61.7 °F 38.4 °F 30.01 in North 8.0 mph 13.0 mph 42% 0.00 in
13:52 62.0 °F 41.6 °F 30.01 in NE 8.0 mph 9.0 mph 47% 0.00 in
13:57 62.0 °F 39.3 °F 30.00 in NE 10.0 mph 10.0 mph 43% 0.00 in
14:02 62.2 °F 41.2 °F 30.01 in NNW 9.0 mph 10.0 mph 46% 0.00 in
14:07 62.6 °F 41.0 °F 30.01 in NE 5.0 mph 14.0 mph 45% 0.00 in
14:12 62.9 °F 42.4 °F 30.01 in NNE 9.0 mph 12.0 mph 47% 0.00 in
14:17 62.7 °F 39.3 °F 30.01 in NNW 8.0 mph 12.0 mph 42% 0.00 in
14:22 62.6 °F 41.0 °F 30.01 in NNW 12.0 mph 14.0 mph 45% 0.00 in
14:27 62.7 °F 41.1 °F 30.01 in NE 6.0 mph 9.0 mph 45% 0.00 in
14:32 62.6 °F 39.8 °F 30.01 in NNE 12.0 mph 12.0 mph 43% 0.00 in
14:37 62.7 °F 41.1 °F 30.01 in NW 8.0 mph 15.0 mph 45% 0.00 in
14:42 62.9 °F 41.3 °F 30.01 in WNW 6.0 mph 10.0 mph 45% 0.00 in
14:48 63.0 °F 39.6 °F 30.01 in NNE 5.0 mph 12.0 mph 42% 0.00 in
14:53 63.2 °F 42.1 °F 30.01 in North 8.0 mph 8.0 mph 46% 0.00 in
14:58 63.3 °F 40.5 °F 30.01 in NNE 8.0 mph 14.0 mph 43% 0.00 in
15:03 63.1 °F 39.0 °F 30.01 in NE 6.0 mph 11.0 mph 41% 0.00 in
15:08 63.2 °F 42.1 °F 30.01 in NNE 7.0 mph 11.0 mph 46% 0.00 in
15:13 63.5 °F 41.2 °F 30.01 in NNW 9.0 mph 12.0 mph 44% 0.00 in
15:18 63.8 °F 40.3 °F 30.01 in NW 8.0 mph 12.0 mph 42% 0.00 in
15:23 63.7 °F 40.2 °F 30.01 in North 7.0 mph 12.0 mph 42% 0.00 in
15:28 63.8 °F 40.3 °F 30.01 in NNW 4.0 mph 13.0 mph 42% 0.00 in
15:33 63.7 °F 40.2 °F 30.01 in NNE 4.0 mph 8.0 mph 42% 0.00 in
15:38 64.0 °F 41.7 °F 30.01 in NNE 13.0 mph 13.0 mph 44% 0.00 in
15:43 64.1 °F 41.8 °F 30.01 in NNW 5.0 mph 11.0 mph 44% 0.00 in
15:49 64.1 °F 41.2 °F 30.00 in NNW 8.0 mph 14.0 mph 43% 0.00 in
15:54 64.0 °F 41.7 °F 30.01 in NNW 5.0 mph 12.0 mph 44% 0.00 in
15:59 64.1 °F 40.6 °F 30.01 in North 7.0 mph 11.0 mph 42% 0.00 in
16:04 63.8 °F 38.4 °F 30.01 in NNE 5.0 mph 14.0 mph 39% 0.00 in
16:09 63.8 °F 40.9 °F 30.01 in North 13.0 mph 14.0 mph 43% 0.00 in
16:14 64.3 °F 41.3 °F 30.01 in NE 5.0 mph 6.0 mph 43% 0.00 in
16:19 64.5 °F 41.5 °F 30.01 in NNE 8.0 mph 9.0 mph 43% 0.00 in
16:24 64.2 °F 39.4 °F 30.01 in NE 9.0 mph 11.0 mph 40% 0.00 in
16:29 64.3 °F 40.1 °F 30.01 in NNW 5.0 mph 13.0 mph 41% 0.00 in
16:34 64.4 °F 40.2 °F 30.01 in NNE 6.0 mph 12.0 mph 41% 0.00 in
16:39 64.4 °F 42.0 °F 30.01 in NNE 8.0 mph 12.0 mph 44% 0.00 in
16:44 64.3 °F 41.3 °F 30.01 in NW 7.0 mph 13.0 mph 43% 0.00 in
16:50 64.3 °F 43.7 °F 30.01 in North 6.0 mph 9.0 mph 47% 0.00 in
16:55 64.5 °F 39.7 °F 30.01 in North 9.0 mph 13.0 mph 40% 0.00 in
17:00 64.3 °F 41.3 °F 30.01 in NNW 8.0 mph 12.0 mph 43% 0.00 in
17:05 64.6 °F 41.6 °F 30.01 in NW 4.0 mph 11.0 mph 43% 0.00 in
17:10 64.4 °F 41.4 °F 30.01 in NNE 3.0 mph 9.0 mph 43% 0.00 in
17:15 64.5 °F 40.9 °F 30.01 in NNW 8.0 mph 15.0 mph 42% 0.00 in
17:20 64.6 °F 41.0 °F 30.01 in North 10.0 mph 11.0 mph 42% 0.00 in
17:25 64.6 °F 39.8 °F 30.01 in NNW 4.0 mph 11.0 mph 40% 0.00 in
17:30 65.0 °F 41.4 °F 30.01 in NE 8.0 mph 8.0 mph 42% 0.00 in
17:35 64.7 °F 38.5 °F 30.01 in NNE 9.0 mph 14.0 mph 38% 0.00 in
17:40 64.4 °F 39.6 °F 30.01 in NNE 7.0 mph 11.0 mph 40% 0.00 in
17:45 64.4 °F 40.8 °F 30.00 in NNE 8.0 mph 8.0 mph 42% 0.00 in
17:50 64.5 °F 39.7 °F 30.00 in NNE 5.0 mph 10.0 mph 40% 0.00 in
17:55 64.3 °F 37.5 °F 30.01 in NNE 5.0 mph 12.0 mph 37% 0.00 in
17:56 64.3 °F 37.5 °F 30.00 in NE 6.0 mph 11.0 mph 37% 0.00 in
18:01 64.0 °F 38.6 °F 30.01 in NNW 4.0 mph 12.0 mph 39% 0.00 in
18:06 64.1 °F 38.7 °F 30.01 in North 7.0 mph 13.0 mph 39% 0.00 in
18:11 64.0 °F 38.6 °F 30.01 in North 4.0 mph 13.0 mph 39% 0.00 in
18:17 63.9 °F 39.8 °F 30.01 in NNW 5.0 mph 10.0 mph 41% 0.00 in
18:22 63.9 °F 39.8 °F 30.01 in NE 9.0 mph 10.0 mph 41% 0.00 in
18:27 63.9 °F 40.4 °F 30.01 in East 10.0 mph 10.0 mph 42% 0.00 in
18:32 63.8 °F 40.3 °F 30.01 in NNE 4.0 mph 13.0 mph 42% 0.00 in
18:37 63.7 °F 39.0 °F 30.01 in North 11.0 mph 12.0 mph 40% 0.00 in
18:42 63.5 °F 39.4 °F 30.01 in NNE 6.0 mph 11.0 mph 41% 0.00 in
18:47 63.4 °F 39.9 °F 30.02 in NW 3.0 mph 10.0 mph 42% 0.00 in
18:53 63.3 °F 39.8 °F 30.02 in NNE 6.0 mph 9.0 mph 42% 0.00 in
18:58 63.2 °F 39.8 °F 30.02 in NE 4.0 mph 8.0 mph 42% 0.00 in
19:03 63.0 °F 39.0 °F 30.02 in NE 10.0 mph 12.0 mph 41% 0.00 in
19:08 63.0 °F 39.6 °F 30.02 in NNE 7.0 mph 11.0 mph 42% 0.00 in
19:13 62.8 °F 40.0 °F 30.03 in NNW 7.0 mph 10.0 mph 43% 0.00 in
19:18 62.5 °F 40.3 °F 30.03 in NNE 8.0 mph 9.0 mph 44% 0.00 in
19:23 62.3 °F 40.1 °F 30.03 in NNE 4.0 mph 7.0 mph 44% 0.00 in
19:28 62.1 °F 39.4 °F 30.03 in NNE 4.0 mph 8.0 mph 43% 0.00 in
19:33 62.0 °F 39.9 °F 30.03 in NE 6.0 mph 6.0 mph 44% 0.00 in
19:38 61.8 °F 40.3 °F 30.03 in NNE 2.0 mph 8.0 mph 45% 0.00 in
19:44 61.5 °F 40.0 °F 30.03 in NNE 3.0 mph 6.0 mph 45% 0.00 in
19:49 61.3 °F 40.4 °F 30.03 in NNE 2.0 mph 5.0 mph 46% 0.00 in
19:54 60.9 °F 40.5 °F 30.03 in NE 3.0 mph 6.0 mph 47% 0.00 in
19:59 60.6 °F 40.3 °F 30.04 in NNE 5.0 mph 6.0 mph 47% 0.00 in
20:04 60.0 °F 40.3 °F 30.04 in NNE 3.0 mph 6.0 mph 48% 0.00 in
20:09 59.3 °F 40.7 °F 30.04 in NNW 4.0 mph 5.0 mph 50% 0.00 in
20:15 58.6 °F 40.5 °F 30.04 in North 1.0 mph 3.0 mph 51% 0.00 in
20:20 57.9 °F 40.4 °F 30.04 in NE 3.0 mph 3.0 mph 52% 0.00 in
20:25 57.5 °F 40.0 °F 30.05 in NNE 3.0 mph 5.0 mph 52% 0.00 in
20:30 57.4 °F 39.9 °F 30.04 in North 2.0 mph 4.0 mph 52% 0.00 in
20:36 57.0 °F 39.6 °F 30.04 in NNE 4.0 mph 6.0 mph 52% 0.00 in
20:41 56.8 °F 39.4 °F 30.05 in NNE 1.0 mph 4.0 mph 52% 0.00 in
20:46 56.6 °F 39.2 °F 30.05 in NNE 2.0 mph 4.0 mph 52% 0.00 in
20:51 56.4 °F 39.0 °F 30.05 in NE 1.0 mph 3.0 mph 52% 0.00 in
20:56 56.1 °F 38.7 °F 30.05 in NNE 2.0 mph 2.0 mph 52% 0.00 in
21:02 55.8 °F 38.9 °F 30.05 in NE 1.0 mph 2.0 mph 53% 0.00 in
21:03 55.7 °F 38.8 °F 30.05 in NNE 1.0 mph 2.0 mph 53% 0.00 in
21:08 55.5 °F 39.1 °F 30.05 in NNE 1.0 mph 1.0 mph 54% 0.00 in
21:13 55.0 °F 39.2 °F 30.06 in North 1.0 mph 1.0 mph 55% 0.00 in
21:18 54.5 °F 39.1 °F 30.06 in Calm     56% 0.00 in
21:23 53.8 °F 38.9 °F 30.06 in Calm     57% 0.00 in
21:29 53.2 °F 38.8 °F 30.06 in Calm   1.0 mph 58% 0.00 in
21:34 52.6 °F 39.1 °F 30.06 in Calm     60% 0.00 in
21:39 52.4 °F 38.9 °F 30.07 in NNW 1.0 mph 2.0 mph 60% 0.00 in
21:44 52.8 °F 39.3 °F 30.07 in North 2.0 mph 3.0 mph 60% 0.00 in
21:49 52.9 °F 39.0 °F 30.07 in North 1.0 mph 2.0 mph 59% 0.00 in
21:54 52.9 °F 39.4 °F 30.08 in NNW 1.0 mph 2.0 mph 60% 0.00 in
21:59 52.8 °F 39.3 °F 30.08 in NNE 1.0 mph 2.0 mph 60% 0.00 in
22:04 52.8 °F 39.3 °F 30.08 in NNE 2.0 mph 4.0 mph 60% 0.00 in
22:09 53.1 °F 39.2 °F 30.08 in NE 1.0 mph 3.0 mph 59% 0.00 in
22:14 53.3 °F 39.3 °F 30.08 in NNE 1.0 mph 4.0 mph 59% 0.00 in
22:19 53.4 °F 39.5 °F 30.08 in NE 2.0 mph 3.0 mph 59% 0.00 in
22:24 53.4 °F 39.5 °F 30.08 in NE 2.0 mph 3.0 mph 59% 0.00 in
22:29 53.3 °F 39.3 °F 30.08 in NNE 2.0 mph 2.0 mph 59% 0.00 in
22:35 53.2 °F 39.3 °F 30.08 in NE 2.0 mph 3.0 mph 59% 0.00 in
22:40 53.2 °F 39.3 °F 30.08 in NE 2.0 mph 5.0 mph 59% 0.00 in
22:45 53.0 °F 39.1 °F 30.09 in NE 2.0 mph 4.0 mph 59% 0.00 in
22:50 52.9 °F 39.0 °F 30.09 in NNE 2.0 mph 6.0 mph 59% 0.00 in
22:55 53.0 °F 39.1 °F 30.09 in North 4.0 mph 5.0 mph 59% 0.00 in
23:00 53.2 °F 39.3 °F 30.09 in NNE 3.0 mph 9.0 mph 59% 0.00 in
23:05 53.1 °F 39.2 °F 30.09 in North 3.0 mph 5.0 mph 59% 0.00 in
23:10 52.9 °F 39.4 °F 30.09 in NNE 5.0 mph 5.0 mph 60% 0.00 in
23:15 52.8 °F 39.3 °F 30.09 in North 3.0 mph 5.0 mph 60% 0.00 in
23:20 52.6 °F 39.5 °F 30.09 in NNE 6.0 mph 6.0 mph 61% 0.00 in
23:25 52.6 °F 39.5 °F 30.09 in NNE 4.0 mph 6.0 mph 61% 0.00 in
23:30 52.5 °F 39.5 °F 30.09 in NNE 4.0 mph 5.0 mph 61% 0.00 in
23:35 52.5 °F 39.5 °F 30.09 in NNE 2.0 mph 7.0 mph 61% 0.00 in
23:40 52.3 °F 39.7 °F 30.09 in NNE 4.0 mph 5.0 mph 62% 0.00 in
23:45 52.3 °F 39.7 °F 30.08 in NE 6.0 mph 7.0 mph 62% 0.00 in
23:50 52.3 °F 39.7 °F 30.08 in ENE 6.0 mph 7.0 mph 62% 0.00 in
23:55 52.1 °F 39.5 °F 30.09 in NE 4.0 mph 4.0 mph 62% 0.00 in
Compliments of Weather Underground